Regional Weather Roundup
Issued by NWS

Home | Current Version | Previous Version | Graphics & Text | Print | Product List | Glossary Off
Versions: 1 2 3 4 5 6 7 8 9 10 11 12 13 14 15 16 17 18 19 20 21 22 23 24 25 26 27 28 29 30 31 32 33 34 35 36 37 38 39 40 41 42 43 44 45 46 47 48 49 50

000
ASUS43 KTOP 280508
RWRKS

WEATHER ROUNDUP FOR KANSAS
NATIONAL WEATHER SERVICE GOODLAND KS
1100 PM CST FRI FEB 27 2015

NOTE:  "FAIR" INDICATES FEW OR NO CLOUDS BELOW 12,000 FEET WITH NO
SIGNIFICANT WEATHER AND/OR OBSTRUCTIONS TO VISIBILITY.

KSZ001>006-013>018-027>032-041>047-280600-
NORTHWEST KANSAS

CITY           SKY/WX    TMP DP  RH WIND       PRES   REMARKS
GOODLAND       FLURRIES  11   7  84 S16       30.16S WCI  -6
HAYS           CLOUDY    14   0  52 S10       30.37F WCI   1
HILL CITY      CLOUDY    16   6  65 S10       30.34F WCI   4
RUSSELL        FLURRIES  14   8  77 S12       30.39S WCI   0
$$

KSZ061>065-074>080-084>089-280600-
SOUTHWEST KANSAS

CITY           SKY/WX    TMP DP  RH WIND       PRES   REMARKS
DODGE CITY     CLOUDY    11   6  81 SE12      30.33S WCI  -3
ELKHART          N/A     13   5  70 SE16        N/A  WCI  -3
GARDEN CITY    CLOUDY    10   6  84 S13       30.27S WCI  -5
GREAT BEND     CLOUDY    10   3  72 SE7       30.41F
LIBERAL        CLOUDY    12   7  79 E10       30.27S WCI  -1
PRATT          FLURRIES  14  10  85 SE8       30.40F
$$

KSZ066>073-081>083-090>101-280600-
SOUTHEAST KANSAS

CITY           SKY/WX    TMP DP  RH WIND       PRES   REMARKS
CHANUTE        CLOUDY    18  10  71 E6        30.53S
COFFEYVILLE    PTCLDY    16  13  88 CALM      30.55S
HUTCHINSON     CLOUDY    14   9  80 E6        30.46S
MEDICINE LODGE   N/A     15  12  88 SE6       30.44S
NEWTON         CLOUDY    12   7  79 SE9       30.47S
PARSONS        CLOUDY    19  10  68 CALM      30.54S
WICHITA INTL   FLURRIES  16  10  77 SE10      30.47F WCI   4
WICHITA JABRA  CLOUDY    14  10  84 SE7       30.47F
WICHITA MCCONL MOCLDY    15  11  83 SE7       30.47S
WINFIELD       CLOUDY    16  11  80 E6        30.50F
$$

KSZ007>012-019>026-033>040-048>060-102>105-280600-
NORTHEAST KANSAS

CITY           SKY/WX    TMP DP  RH WIND       PRES   REMARKS
CONCORDIA      CLEAR      8   3  80 S7        30.46S
EMPORIA        CLOUDY    15  10  80 SE8       30.50S
LAWRENCE       MOCLDY    15   4  61 E7        30.55F
MANHATTAN      CLOUDY    16   9  74 S5        30.52S
MARYSVILLE     CLOUDY    14   3  62 SE5       30.49F
OLATHE IND     CLOUDY    17   5  59 E7        30.54F
OLATHE EXE     CLOUDY    17   4  56 E7        30.53F
SALINA         CLEAR     12   7  80 SE6       30.49S
TOPEKA BILLARD CLOUDY    16   3  56 E6        30.55S
TOPEKA FORBES  CLOUDY    16   3  56 SE6       30.52S
$$



USA.gov is the U.S. government's official web portal to all federal, state and local government web resources and services.